Location: Oshawa
(43.9000°N, 78.8670°W)
Time: 09:29:04
(UTC-04:00)

Thor Agena Rocket - Visible Passes

Search period start: 25 May 2015 00:00
Search period end: 04 June 2015 00:00
Orbit: 761 x 809 km, 99.0° (Epoch: 24 May)

Date Brightness Start Highest point End Pass type
(mag) Time Alt. Az. Time Alt. Az. Time Alt. Az.
25 May 4.1 02:58:02 18° SE 03:01:56 59° ENE 03:07:09 10° N visible
25 May 5.0 04:38:39 13° SW 04:41:43 19° W 04:45:21 10° NW visible
26 May 5.1 02:26:30 10° SE 02:31:01 32° ENE 02:35:43 10° N visible
26 May 4.3 04:07:06 19° SSW 04:10:18 36° W 04:15:08 10° NNW visible
27 May 5.9 01:56:45 10° ESE 02:00:14 19° ENE 02:03:52 10° NNE visible
27 May 3.6 03:35:33 21° S 03:39:05 68° WSW 03:44:22 10° NNW visible
28 May 6.4 01:28:59 10° ENE 01:29:34 10° NE 01:30:27 10° NE visible
28 May 3.9 03:04:01 17° SSE 03:08:02 66° ENE 03:13:17 10° N visible
28 May 5.2 04:44:37 11° SW 04:47:54 17° W 04:51:11 10° NW visible
29 May 5.0 02:32:29 11° SE 02:37:05 36° ENE 02:41:54 10° N visible
29 May 4.4 04:13:05 17° SSW 04:16:27 32° W 04:21:08 10° NNW visible
30 May 5.8 02:02:33 10° ESE 02:06:16 20° ENE 02:10:08 10° NNE visible
30 May 3.6 03:41:33 20° S 03:45:12 60° WSW 03:50:26 10° NNW visible
31 May 6.3 01:34:04 10° ENE 01:35:35 11° ENE 01:37:22 10° NE visible
31 May 3.8 03:10:02 17° SSE 03:14:07 73° ENE 03:19:24 10° N visible
31 May 5.3 04:50:57 10° SW 04:54:05 15° W 04:56:58 10° NW visible
01 Jun 4.8 02:38:30 11° SE 02:43:10 39° ENE 02:48:03 10° N visible
01 Jun 4.6 04:19:06 15° SSW 04:22:37 29° W 04:27:06 10° NW visible
02 Jun 5.7 02:08:23 10° ESE 02:12:20 22° ENE 02:16:22 10° NNE visible
02 Jun 3.7 03:47:35 19° S 03:51:19 54° W 03:56:29 10° NNW visible
03 Jun 6.2 01:39:32 10° E 01:41:36 13° ENE 01:43:55 10° NNE visible
03 Jun 3.6 03:16:03 17° SSE 03:20:13 81° ENE 03:25:30 10° NNW visible
03 Jun 5.4 04:57:37 10° WSW 05:00:16 13° W 05:02:38 10° WNW visible
